CUBERRT (43546 NORAD) Tracking and Keplerian Element Data

This shows tracking and keplerian element data for the satellite.

Feedback or suggestion? Click here.




ElementValue
Catalog43546
NameCUBERRT
Epoch Orbit1996
Epoch Day323.22901126
Epoch Year2018
RAAN324.2906
Inclination51.6394
Eccentricity0.0006767
Argument of Perigee56.1942
Mean Anonmoly303.9694
Mean Motion15.57500506
Decay Rate0.00022182
L11 43546U 98067NU 18323.22901126 .00022182 00000-0 30143-3 0 9991
L22 43546 51.6394 324.2906 0006767 56.1942 303.9694 15.57500506 19964

Live tracking and technical data element details for CUBERRT (NORAD 43546). CUBERRT can be tracked NOW for your location showing map with azimuth and elevation plus other details from your city location.

Track the satellite on the map from your city or location and see movement details for azimuth, elevation, latitude, longitude, range, height, and movement on the map or in text.







IsCatalogInMostPopularTable: catalog: 43546, numindb: 40
Update: records affected: 1



GetName: 43546 CUBERRT

Hit Count: updated at: Tue, 20 Nov 2018 11:07:37 GMT